Time,TemperatureF,DewpointF,PressureIn,WindDirection,WindDirectionDegrees,WindSpeedMPH,WindSpeedGustMPH,Humidity,HourlyPrecipIn,Conditions,Clouds,dailyrainin,SoftwareType,DateUTC
2013-12-20 00:02:00,21.0,11.0,-100.00,North,8,6.0,8.0,65,-99.99,,,-99.99,,2013-12-20 08:02:00,
2013-12-20 00:22:00,20.0,10.0,-100.00,North,352,4.0,6.0,65,-99.99,,,-99.99,,2013-12-20 08:22:00,
2013-12-20 00:32:00,20.0,10.0,-100.00,North,352,4.0,6.0,65,-99.99,,,-99.99,,2013-12-20 08:32:00,
2013-12-20 00:52:00,19.0,10.0,-100.00,North,356,6.0,7.0,67,-99.99,,,-99.99,,2013-12-20 08:52:00,
2013-12-20 01:03:00,19.0,10.0,-100.00,North,356,6.0,7.0,67,-99.99,,,-99.99,,2013-12-20 09:03:00,
2013-12-20 01:22:00,19.0,11.0,-100.00,North,1,5.0,7.0,69,-99.99,,,-99.99,,2013-12-20 09:22:00,
2013-12-20 01:33:00,19.0,11.0,-100.00,North,1,5.0,7.0,69,-99.99,,,-99.99,,2013-12-20 09:33:00,
2013-12-20 01:43:00,19.0,11.0,-100.00,North,1,5.0,7.0,69,-99.99,,,-99.99,,2013-12-20 09:43:00,
2013-12-20 02:12:00,18.0,10.0,-100.00,North,-999,0.0,2.0,71,-99.99,,,-99.99,,2013-12-20 10:12:00,
2013-12-20 02:23:00,18.0,10.0,-100.00,North,4,5.0,6.0,71,-99.99,,,-99.99,,2013-12-20 10:23:00,
2013-12-20 02:42:00,17.0,10.0,-100.00,North,-999,0.0,2.0,73,-99.99,,,-99.99,,2013-12-20 10:42:00,
2013-12-20 02:53:00,17.0,10.0,-100.00,North,-999,0.0,0.0,74,-99.99,,,-99.99,,2013-12-20 10:53:00,
2013-12-20 03:02:00,17.0,10.0,-100.00,North,-999,0.0,0.0,74,-99.99,,,-99.99,,2013-12-20 11:02:00,
2013-12-20 03:12:00,17.0,10.0,-100.00,North,-999,0.0,0.0,74,-99.99,,,-99.99,,2013-12-20 11:12:00,
2013-12-20 03:42:00,18.0,12.0,-100.00,NNE,21,4.0,7.0,76,-99.99,,,-99.99,,2013-12-20 11:42:00,
2013-12-20 04:12:00,17.0,11.0,-100.00,NNW,343,4.0,7.0,77,-99.99,,,-99.99,,2013-12-20 12:12:00,
2013-12-20 04:23:00,17.0,10.0,-100.00,NNW,328,4.0,6.0,75,-99.99,,,-99.99,,2013-12-20 12:23:00,
2013-12-20 04:42:00,17.0,11.0,-100.00,North,-999,0.0,1.0,76,-99.99,,,-99.99,,2013-12-20 12:42:00,
2013-12-20 04:52:00,17.0,11.0,-100.00,West,260,3.0,5.0,77,-99.99,,,-99.99,,2013-12-20 12:52:00,
2013-12-20 05:01:00,17.0,11.0,-100.00,West,260,3.0,5.0,77,-99.99,,,-99.99,,2013-12-20 13:01:00,
2013-12-20 05:22:00,17.0,11.0,-100.00,West,275,2.0,3.0,76,-99.99,,,-99.99,,2013-12-20 13:22:00,
2013-12-20 05:42:00,17.0,11.0,-100.00,West,265,3.0,3.0,77,-99.99,,,-99.99,,2013-12-20 13:42:00,
2013-12-20 06:11:00,17.0,11.0,-100.00,SW,232,1.0,2.0,77,-99.99,,,-99.99,,2013-12-20 14:11:00,
2013-12-20 06:22:00,17.0,12.0,-100.00,WSW,254,2.0,3.0,79,-99.99,,,-99.99,,2013-12-20 14:22:00,
2013-12-20 06:42:00,17.0,12.0,-100.00,WSW,254,2.0,3.0,79,-99.99,,,-99.99,,2013-12-20 14:42:00,
2013-12-20 06:52:00,17.0,12.0,-100.00,West,265,1.0,2.0,79,-99.99,,,-99.99,,2013-12-20 14:52:00,
2013-12-20 07:11:00,16.0,11.0,-100.00,North,-999,0.0,1.0,80,-99.99,,,-99.99,,2013-12-20 15:11:00,
2013-12-20 07:22:00,16.0,11.0,-100.00,North,-999,0.0,1.0,80,-99.99,,,-99.99,,2013-12-20 15:22:00,
2013-12-20 07:44:00,16.0,11.0,-100.00,North,-999,0.0,1.0,81,-99.99,,,-99.99,,2013-12-20 15:44:00,
2013-12-20 07:53:00,16.0,11.0,-100.00,North,-999,0.0,1.0,81,-99.99,,,-99.99,,2013-12-20 15:53:00,
2013-12-20 08:23:00,18.0,13.0,-100.00,North,11,1.0,1.0,80,-99.99,,,-99.99,,2013-12-20 16:23:00,
2013-12-20 08:43:00,19.0,14.0,-100.00,ENE,71,1.0,2.0,80,-99.99,,,-99.99,,2013-12-20 16:43:00,
2013-12-20 08:53:00,19.0,14.0,-100.00,ENE,71,1.0,2.0,80,-99.99,,,-99.99,,2013-12-20 16:53:00,
2013-12-20 09:02:00,19.0,14.0,-100.00,ENE,71,1.0,2.0,80,-99.99,,,-99.99,,2013-12-20 17:02:00,
2013-12-20 09:22:00,22.0,13.0,-100.00,SSE,152,2.0,3.0,69,-99.99,,,-99.99,,2013-12-20 17:22:00,
2013-12-20 09:42:00,24.0,15.0,-100.00,ENE,68,1.0,2.0,69,-99.99,,,-99.99,,2013-12-20 17:42:00,
2013-12-20 09:52:00,24.0,15.0,-100.00,ENE,68,1.0,2.0,69,-99.99,,,-99.99,,2013-12-20 17:52:00,
2013-12-20 10:12:00,25.0,16.0,-100.00,ESE,114,2.0,4.0,67,-99.99,,,-99.99,,2013-12-20 18:12:00,
2013-12-20 10:22:00,24.0,14.0,-100.00,SSW,196,3.0,4.0,65,-99.99,,,-99.99,,2013-12-20 18:22:00,
2013-12-20 10:32:00,24.0,14.0,-100.00,SSW,196,3.0,4.0,65,-99.99,,,-99.99,,2013-12-20 18:32:00,
2013-12-20 10:42:00,24.0,14.0,-100.00,SSW,196,3.0,4.0,65,-99.99,,,-99.99,,2013-12-20 18:42:00,
2013-12-20 11:21:00,26.0,16.0,-100.00,SE,141,3.0,4.0,64,-99.99,,,-99.99,,2013-12-20 19:21:00,
2013-12-20 11:32:00,26.0,16.0,-100.00,SE,141,3.0,4.0,64,-99.99,,,-99.99,,2013-12-20 19:32:00,
2013-12-20 11:52:00,27.0,14.0,-100.00,SE,144,3.0,4.0,58,-99.99,,,-99.99,,2013-12-20 19:52:00,
2013-12-20 12:02:00,27.0,14.0,-100.00,SE,144,3.0,4.0,58,-99.99,,,-99.99,,2013-12-20 20:02:00,
2013-12-20 12:11:00,27.0,14.0,-100.00,SE,144,3.0,4.0,58,-99.99,,,-99.99,,2013-12-20 20:11:00,
2013-12-20 12:22:00,31.0,15.0,-100.00,ENE,59,2.0,3.0,52,-99.99,,,-99.99,,2013-12-20 20:22:00,
2013-12-20 12:42:00,30.0,15.0,-100.00,South,171,3.0,6.0,52,-99.99,,,-99.99,,2013-12-20 20:42:00,
2013-12-20 13:43:00,31.0,16.0,-100.00,SSE,161,3.0,6.0,54,-99.99,,,-99.99,,2013-12-20 21:43:00,
2013-12-20 13:53:00,31.0,16.0,-100.00,SSE,161,3.0,6.0,54,-99.99,,,-99.99,,2013-12-20 21:53:00,
2013-12-20 14:13:00,30.0,15.0,-100.00,SSE,154,3.0,5.0,54,-99.99,,,-99.99,,2013-12-20 22:13:00,
2013-12-20 14:23:00,30.0,15.0,-100.00,SSE,154,3.0,5.0,54,-99.99,,,-99.99,,2013-12-20 22:23:00,
2013-12-20 14:43:00,33.0,16.0,-100.00,SE,143,2.0,4.0,49,-99.99,,,-99.99,,2013-12-20 22:43:00,
2013-12-20 14:53:00,32.0,15.0,-100.00,SE,136,3.0,4.0,49,-99.99,,,-99.99,,2013-12-20 22:53:00,
2013-12-20 15:02:00,32.0,15.0,-100.00,SE,136,3.0,4.0,49,-99.99,,,-99.99,,2013-12-20 23:02:00,
2013-12-20 15:42:00,31.0,12.0,-100.00,SSW,210,1.0,2.0,44,-99.99,,,-99.99,,2013-12-20 23:42:00,
2013-12-20 16:11:00,31.0,10.0,-100.00,SSW,205,2.0,3.0,40,-99.99,,,-99.99,,2013-12-21 00:11:00,
2013-12-20 16:22:00,32.0,4.0,-100.00,SSW,203,1.0,2.0,30,-99.99,,,-99.99,,2013-12-21 00:22:00,
2013-12-20 20:42:00,32.0,13.0,-100.00,NE,35,2.0,3.0,44,-99.99,,,-99.99,,2013-12-21 04:42:00,
2013-12-20 21:12:00,32.0,19.0,-100.00,NE,42,2.0,3.0,59,-99.99,,,-99.99,,2013-12-21 05:12:00,
2013-12-20 22:12:00,32.0,10.0,-100.00,North,-999,0.0,2.0,39,-99.99,,,-99.99,,2013-12-21 06:12:00,
2013-12-20 22:21:00,36.0,24.0,-100.00,North,4,2.0,5.0,61,-99.99,,,-99.99,,2013-12-21 06:21:00,
2013-12-20 23:11:00,34.0,23.0,-100.00,NE,42,2.0,5.0,64,-99.99,,,-99.99,,2013-12-21 07:11:00,
2013-12-20 23:22:00,34.0,23.0,-100.00,SW,223,3.0,3.0,63,-99.99,,,-99.99,,2013-12-21 07:22:00,
2013-12-20 23:42:00,33.0,23.0,-100.00,NNE,18,3.0,6.0,67,-99.99,,,-99.99,,2013-12-21 07:42:00,